Main page
METAR-TAF:

METAR-TAF

Airports :

Conceição do Araguaia Airport

Conceição do Araguaia, Pará, Brazil

latitude: 08-15S, longitude: 049-17W, elevation: 157 m

Current weather observation

The report was made 14 hours and 14 minutes ago, at 20:00 UTC
Wind 3 kt from the Northwest
Temperature 29°C
Humidity 62%
Pressure 1008 hPa
Visibility 10 km or more
Broken clouds at a height of 2000 ft

METAR: SBAA 132000Z 31003KT 9999 BKN020 29/21 Q1008 RETS

Time: 08:14 (10:14 UTC)


TAF: missing

Weather observations and forecasts of more than 4000 airports (METAR and TAF reports).

The available stations are represented by yellow and red dots on the map.

Hover mouse over dot to see the name of the station.

Then click to see weather observations and forecasts.

To change the map : click on the green buttons with a black cross to zoom in, on the green button with a dash to zoom out, or on the green arrows for adjacent maps.


METAR-TAF: